星链-3671 (STARLINK-3671 )

导读 | 星芒AI

STARLINK-3671 是 SpaceX Starlink 项目中的一颗低轨通信卫星,属于该系列的第 3671 颗发射卫星。它主要用于提供全球范围内的高速互联网服务,特别是在偏远和网络基础设施薄弱的地区。该卫星采用先进的推进和通信技术,支持高带宽、低延迟的数据传输。作为 Starlink 卫星群的一部分,STARLINK-3671 有助于构建一个覆盖全球的卫星互联网网络,提升全球用户的网络接入能力。

基本信息
目录编号:
51972
目录名称:
STARLINK-3671
国际标识:
2022-025S
轨道中心:
EARTH
卫星名称:
星链-3671
卫星全名:
星链-3671 (STARLINK-3671 )
卫星状态:
在轨 (已飞行1383 天)
发射日期:
2022-03-09 UTC
国别 :
美国 (US)
星等 :
--
轨道信息
数据来源 国际轨道数据 AOE轨道数据
星历时间 2025-12-20T19:14:52+0800
13小时前
查看轨道信息
2025-12-15T08:00:00+0800
6天前
查看轨道信息
半长轴 6925.369km 6925.416km
偏心率 0.0001394 0.0001902
轨道倾角 53.055° 53.054°
近地点辐角 89.141° 70.114°
升交点赤经 26.520° 51.073°
平近点角 270.973° 136.865°
近地点 546.266km 545.963km
远地点 548.198km 548.599km
周期 95.593分钟 95.594分钟
每日圈数 15.063936 15.06378
详细信息
固有亮度:
5
最大亮度:
2.5
卫星平台:
Starlink v1.5
覆盖范围:
全球
运营商:
太空探索技术公司
运营商所在国:
美国
制造商(研发单位):
太空探索技术公司
制造商所在国:
美国
使用方式:
暂无
卫星简介
星链(Starlink)计划是由太空探索技术公司(SpaceX)提出的一个巨型低轨卫星互联网星座项目,计划在2019年至2024年间在太空搭建由约1.2万颗卫星组成的“星链”网络,其中1584颗将部署在地球上空550千米处的近地轨道,并从2020年开始工作。该卫星仍在工作。
2D轨道图
3D轨道图
轨道高度分析图
轨道倾角分析图
轨道综合分析图
查看轨道综合分析图